Cortez, CO

7:50 AM MST on November 20, 2019 (GMT -0700)
Cortez Municipal

Weather History for KCEZ - September, 2019

Change the Weather History Date:

Saturday, September 14, 2019

  Actual Average Record
Temperature  
Mean Temperature 61 °F 61 °F  
Max Temperature 87 °F 78 °F 91 °F (2000)
Min Temperature 35 °F 43 °F 32 °F (2003)
Degree Days  
Heating Degree Days 4 5  
Month to date heating degree days 24 40  
Since 1 July heating degree days 24 52  
Cooling Degree Days 0 0  
Month to date cooling degree days 63 16  
Year to date cooling degree days 543 425  
Growing Degree Days 11 (Base 50)    
Moisture  
Dew Point 25 °F    
Average Humidity 37    
Maximum Humidity 64    
Minimum Humidity 9    
Precipitation  
Precipitation 0.00 in 0.06 in 0.56 in (2011)
Month to date precipitation 0.15 0.75  
Year to date precipitation 9.93 9.19  
Sea Level Pressure  
Sea Level Pressure 30.13 in    
Wind  
Wind Speed 5 mph (ENE)    
Max Wind Speed 14 mph    
Max Gust Speed 19 mph    
Visibility 10 miles    
Events      
T = Trace of Precipitation, MM = Missing Value Source: NWS Daily Summary

Daily Weather History Graph

Daily Weather History Graph

Search for Another Location

Airport or City:

Astronomy

Sep. 14, 2019 Rise Set
Actual Time 6:55 AM MDT 7:23 PM MDT
Civil Twilight 6:29 AM MDT 7:50 PM MDT
Nautical Twilight 5:58 AM MDT 8:20 PM MDT
Astronomical Twilight 5:27 AM MDT 8:52 PM MDT
Moon 8:06 PM MDT (9/14) 7:12 AM MDT (9/14)
Length of Visible Light 13h 20m
Length of Day
12h 28m
Full, 100% of the Moon is Illuminated
Sep 14
Full
Sep 21
Last Quarter
Sep 28
New
Oct 5
First Quarter
Oct 13
Full

Hourly Weather History & Observations

Time (MDT) Temp. Windchill Dew Point Humidity Pressure Visibility Wind Dir Wind Speed Gust Speed Precip Events Conditions
12:53 AM 43.0 °F 38.8 °F 28.0 °F 56% 30.14 in 10.0 mi ENE 6.9 mph - N/A   Clear
1:53 AM 41.0 °F 37.1 °F 25.0 °F 53% 30.15 in 10.0 mi East 5.8 mph - N/A   Clear
2:53 AM 39.9 °F - 25.0 °F 55% 30.15 in 10.0 mi Calm Calm - N/A   Clear
3:53 AM 37.9 °F 32.7 °F 25.0 °F 60% 30.15 in 10.0 mi ENE 6.9 mph - N/A   Clear
4:53 AM 36.0 °F 33.3 °F 25.0 °F 64% 30.17 in 10.0 mi East 3.5 mph - N/A   Clear
5:53 AM 37.0 °F 33.3 °F 25.0 °F 62% 30.18 in 10.0 mi East 4.6 mph - N/A   Clear
6:53 AM 37.0 °F 33.3 °F 23.0 °F 57% 30.20 in 10.0 mi ENE 4.6 mph - N/A   Clear
7:53 AM 43.0 °F - 26.1 °F 51% 30.25 in 10.0 mi Calm Calm - N/A   Clear
8:53 AM 53.1 °F - 28.9 °F 40% 30.23 in 10.0 mi Calm Calm - N/A   Clear
9:53 AM 64.9 °F - 30.0 °F 27% 30.20 in 10.0 mi ESE 4.6 mph - N/A   Clear
10:53 AM 73.9 °F - 27.0 °F 18% 30.18 in 10.0 mi Variable 3.5 mph - N/A   Clear
11:53 AM 78.1 °F - 23.0 °F 13% 30.15 in 10.0 mi Variable 3.5 mph - N/A   Clear
12:53 PM 82.0 °F - 27.0 °F 13% 30.13 in 10.0 mi Variable 4.6 mph - N/A   Clear
1:53 PM 84.9 °F - 26.1 °F 12% 30.10 in 10.0 mi Calm Calm - N/A   Clear
2:53 PM 86.0 °F - 21.9 °F 10% 30.06 in 10.0 mi North - - N/A   Clear
3:53 PM 86.0 °F - 21.0 °F 9% 30.04 in 10.0 mi WNW 11.5 mph 18.4 mph N/A   Clear
4:53 PM 84.0 °F - 19.0 °F 9% 30.04 in 10.0 mi West 5.8 mph - N/A   Clear
5:53 PM 84.0 °F - 19.9 °F 9% 30.03 in 10.0 mi WNW 5.8 mph - N/A   Clear
6:53 PM 78.1 °F - 30.9 °F 18% 30.05 in 10.0 mi South 8.1 mph - N/A   Clear
7:53 PM 69.1 °F - 24.1 °F 18% 30.07 in 10.0 mi South 9.2 mph - N/A   Clear
8:53 PM 62.1 °F - 26.1 °F 25% 30.09 in 10.0 mi East 5.8 mph - N/A   Clear
9:53 PM 59.0 °F - 27.0 °F 29% 30.07 in 10.0 mi NE 6.9 mph - N/A   Clear
10:53 PM 55.9 °F - 24.1 °F 29% 30.05 in 10.0 mi ENE 8.1 mph - N/A   Clear